Back to catalog

HULIANWANG DIGUI-55

AliveCommunicationsLEO
NORAD 65112·PAYLOAD·🇨🇳 China

Launched Aug 4, 2025 from Wenchang Space Launch Site

Loading…

Next Passes (next 24 hours)

TLE

FreshSource: Space-Track

Epoch: Sep 14, 2026, 13:59 UTC

1 65112U 25168G   26257.58311943 -.00000095  00000-0  62521-4 0  9998
2 65112  50.0016   4.8515 0011100 359.8573   0.2295 13.29326447 54586

Track HULIANWANG DIGUI-55 in real time with AllMySat

Download on the App Store